Location: Marshall
(39.8477°N, 87.1868°W)
Time: 03:15:36
(UTC+00:00)

Envisat - Pass Details

Date: 15 May 2026
Orbit: 761 x 763 km, 98.4° (Epoch: 9 June)

Event Time Altitude Azimuth Distance (km) Brightness Sun altitude
Rises 08:54:42 0° 7° (N) 3,231 7.1 -16.5°
Reaches altitude 10° 08:57:04 10° 2° (N) 2,301 6.1 -16.2°
Maximum altitude 09:01:56 49° 289° (WNW) 982 3.3 -15.5°
Enters shadow 09:04:44 24° 225° (SW) 1,552 4.0 -15.1°
